Wetbulb
74.78 75.38 75.55 75.24 75.30 75.44 75.11 76.02 76.33 76.50 76.62 76.91 77.72 77.86 77.71 77.80 77.63 76.25 75.02 73.03 70.95 69.53 67.51 66.29 65.32 65.14 63.96 64.21 63.98 63.72 62.23 61.24 57.97 59.28 58.71 59.07 58.79 58.99 59.64 59.12 58.81 59.97 59.99
74.94 75.69 74.94 75.03 75.30 75.11 75.15 75.78 76.53 76.37 76.58 76.63 76.86 76.93 77.25 77.27 77.40 76.63 75.52 73.90 71.69 69.98 68.82 66.72 65.86 64.10 64.75 64.81 63.19 62.85 61.66 61.40 58.38 56.38 55.95 56.42 57.29 59.25 58.70 58.66 58.30 57.99 59.24
74.86 74.47 74.50 74.41 74.55 74.56 75.02 75.58 75.94 75.99 76.19 75.91 75.91 75.72 75.88 76.14 76.45 76.97 76.44 75.49 73.16 71.58 70.15 68.02 66.91 65.76 65.07 63.79 62.93 61.65 59.55 58.33 56.96 54.06 54.67 57.19 56.88 57.68 57.48 58.42 58.47 59.27 59.31
74.26 74.11 74.53 74.11 74.58 74.53 75.72 75.74 75.37 75.55 75.49 75.57 75.71 75.57 75.74 75.97 76.14 76.59 76.52 75.76 74.45 72.38 70.89 69.17 67.67 66.38 65.84 64.95 62.81 61.50 59.51 56.61 55.74 55.00 54.93 55.51 56.00 58.07 56.18 54.64 55.29 57.64 57.43
73.95 73.95 74.30 75.36 75.77 75.72 75.86 75.57 75.34 75.26 74.89 75.28 75.32 75.43 75.58 75.22 74.90 75.82 76.40 75.74 75.04 73.42 71.58 69.51 68.09 66.76 65.02 64.61 62.91 61.42 58.42 54.47 54.03 54.15 54.15 55.30 55.18 54.95 55.06 56.43 54.60 56.04 58.23
73.95 73.86 74.93 75.32 75.51 75.56 75.78 75.65 74.97 74.50 74.48 74.80 74.21 74.30 74.48 73.89 67.48 67.42 72.69 75.61 75.62 74.52 72.86 70.61 68.69 64.45 63.62 61.64 60.50 59.59 58.40 55.72 56.02 54.45 53.65 54.83 56.94 56.20 55.90 54.74 54.15 54.09 52.35
73.13 73.89 74.71 75.20 74.94 75.23 75.59 75.11 74.75 74.58 75.06 74.15 73.99 73.88 73.78 74.27 65.07 64.68 66.65 74.78 75.16 75.04 74.02 72.77 68.87 64.43 63.97 65.14 60.74 58.63 57.32 56.04 55.82 57.81 55.25 56.49 56.96 57.05 56.16 55.17 56.18 55.24 54.10
72.54 73.16 74.16 74.69 74.60 75.17 75.20 74.88 75.37 74.72 74.44 74.41 74.08 74.74 74.41 74.46 64.33 62.51 64.48 73.63 74.74 75.05 74.27 73.35 70.74 67.97 64.00 64.71 63.95 60.32 59.23 58.33 57.93 57.54 57.39 58.22 59.17 58.75 56.68 55.94 56.27 56.23 56.57
72.34 72.98 73.50 74.32 74.20 74.44 74.05 74.44 74.86 74.98 74.39 74.00 74.47 74.64 74.41 74.94 61.78 61.29 64.49 73.38 73.78 74.26 73.75 73.09 70.57 68.81 62.47 58.91 61.79 60.56 59.93 59.10 55.58 53.92 55.12 55.78 55.30 54.33 53.42 55.71 54.90 54.16 52.37
72.76 73.41 74.07 74.44 74.35 74.00 74.58 74.69 75.28 75.54 75.32 74.36 74.42 75.53 71.33 75.22 62.08 59.25 63.24 73.67 73.57 73.18 73.96 73.35 62.53 67.43 58.97 56.31 59.84 61.34 58.52 59.25 56.85 52.50 53.01 52.93 52.27 55.40 53.43 57.24 56.46 53.33 52.29
74.28 74.50 74.72 74.91 74.71 74.99 75.30 75.54 75.52 75.27 75.41 75.12 75.07 75.47 75.38 74.35 73.98 57.98 57.61 73.61 73.70 73.34 72.96 72.19 70.51 57.76 54.60 52.85 54.58 61.41 59.72 60.28 57.11 53.93 53.46 54.86 55.74 56.81 56.78 57.55 58.48 55.46 52.75
74.48 74.55 74.78 75.15 74.46 74.39 75.56 75.57 75.51 75.37 74.74 74.84 74.29 74.35 74.85 75.58 64.70 58.52 57.07 58.73 69.02 73.94 73.55 73.03 72.33 55.65 52.20 51.28 52.47 52.16 50.63 54.00 55.45 53.48 53.65 54.32 55.26 55.95 56.75 57.18 57.57 56.33 55.89
74.30 74.33 74.55 75.04 74.51 75.20 74.71 74.89 73.40 74.53 73.28 73.63 73.19 73.06 73.51 74.98 75.10 60.45 56.71 56.14 57.87 67.89 74.03 70.27 62.53 53.14 50.18 50.70 51.45 49.29 50.44 54.29 53.97 51.01 53.18 53.37 55.98 57.93 57.32 56.68 57.05 56.85 55.93
72.99 73.89 74.22 74.13 73.55 74.59 74.08 73.91 73.47 73.33 73.12 73.06 73.05 73.03 73.50 74.29 74.74 74.25 72.31 70.22 57.89 60.60 63.54 66.83 57.92 55.69 54.17 54.89 51.25 50.00 52.14 52.29 51.49 51.94 53.79 54.87 56.48 56.13 54.62 55.15 52.84 54.04 52.21
72.33 72.61 72.84 73.23 72.97 73.49 74.42 74.07 73.98 75.60 73.17 73.55 74.04 73.95 73.48 73.28 73.92 67.58 68.71 74.29 73.84 66.13 66.11 61.02 56.88 56.48 53.74 55.86 54.80 51.69 50.38 50.55 49.49 50.60 53.18 54.70 54.35 54.92 53.70 53.08 52.10 51.29 50.84
71.50 71.53 71.96 72.70 73.13 72.98 73.14 73.56 62.95 60.20 55.90 55.61 54.70 65.60 73.98 63.72 52.77 54.35 53.99 52.72 51.45 51.63 64.86 62.71 59.20 57.53 55.65 55.39 57.32 56.29 50.50 50.34 50.14 51.47 52.30 54.44 53.45 53.28 53.40 53.19 52.51 50.84 50.14
71.83 72.24 72.43 69.43 72.48 72.51 72.76 72.60 72.13 66.67 53.44 51.09 49.28 50.18 49.28 57.47 48.73 49.64 51.27 48.37 46.01 51.53 64.96 63.86 59.86 57.03 57.64 55.91 55.66 55.40 51.36 49.54 50.45 51.43 52.90 55.34 54.22 52.77 49.21 52.03 51.75 51.11 50.08
71.54 61.31 72.20 72.53 72.51 72.64 72.70 73.01 73.17 72.68 72.55 73.01 56.62 55.87 49.36 46.37 46.74 45.11 44.02 49.00 53.82 54.70 62.34 62.07 59.30 59.97 58.56 56.92 55.57 57.66 53.30 50.24 51.39 51.85 53.74 55.17 55.00 53.01 51.15 51.70 50.97 50.64 50.28
68.71 70.66 71.83 71.92 72.61 70.88 72.95 72.82 73.01 72.97 72.96 73.43 74.14 58.28 48.26 41.83 43.29 42.93 45.27 68.37 66.27 60.53 60.91 61.16 60.65 60.40 59.77 58.81 57.24 55.32 53.26 51.87 53.09 53.56 55.30 55.22 54.45 51.09 52.11 52.02 50.81 45.74 46.24
66.15 62.95 64.60 73.20 74.71 73.74 73.37 73.39 73.63 73.92 74.20 74.69 74.71 74.98 65.55 57.20 64.91 59.79 54.18 60.66 64.78 64.47 61.77 61.34 59.65 59.32 58.79 57.56 55.85 55.73 53.87 52.51 52.13 53.79 55.74 54.87 53.46 50.79 51.30 51.60 50.52 50.58 50.18
63.26 64.86 62.78 68.65 69.79 71.60 72.87 75.36 75.95 75.85 75.79 75.84 75.84 74.42 60.21 70.45 72.62 69.54 62.30 61.10 63.94 64.36 64.08 61.52 61.39 57.52 57.25 55.19 54.61 53.15 53.53 53.16 52.97 55.27 55.61 54.68 51.84 52.65 52.95 51.45 51.37 50.73 51.17
59.57 60.61 62.69 63.62 63.95 64.54 66.12 72.35 73.99 75.87 76.00 75.77 75.66 72.88 47.08 65.86 72.48 72.44 69.54 64.68 64.47 64.17 63.89 60.74 56.45 55.47 55.59 55.63 54.88 53.60 53.07 52.16 54.95 55.47 55.35 53.26 53.48 52.71 51.49 51.02 50.91 50.16 51.04
55.87 57.26 59.08 58.48 58.83 57.83 60.35 63.50 66.14 68.85 72.45 74.60 74.34 73.89 68.03 66.89 67.47 69.09 70.08 67.60 63.39 60.43 57.98 57.06 56.46 55.41 55.95 57.20 57.42 56.20 53.71 54.67 56.75 56.73 54.70 52.37 51.21 52.17 51.34 50.82 50.33 49.26 49.94
54.11 53.89 54.42 55.49 55.23 56.62 55.99 56.87 57.85 55.97 62.76 69.50 71.27 71.76 71.15 70.31 69.39 69.71 67.27 64.47 60.63 58.17 57.11 57.22 56.36 56.12 55.48 54.22 56.11 56.29 57.04 59.07 58.28 56.23 54.58 54.03 52.87 49.50 51.18 50.99 50.13 49.37 48.52
51.70 51.45 50.79 51.80 52.41 53.02 53.70 53.98 54.04 54.84 56.58 59.79 61.58 62.15 62.49 62.90 63.18 62.93 61.43 61.02 59.58 59.02 58.57 57.58 56.28 54.90 54.19 54.42 54.97 54.80 48.83 39.82 55.05 48.50 53.55 54.65 52.90 51.92 51.31 50.90 50.35 49.43 48.19
48.25 49.31 48.51 49.07 48.81 49.74 51.03 50.42 49.98 50.37 51.49 53.25 56.83 59.13 58.49 59.23 60.00 59.43 58.98 57.89 57.36 57.58 57.70 58.32 58.70 55.33 54.48 54.84 54.15 46.46 37.52 36.78 46.88 43.19 54.06 54.18 52.04 51.59 51.24 50.85 50.38 48.74 48.01
MSLP
1012.06 1012.57 1013.25 1013.84 1014.34 1014.82 1015.19 1015.64 1015.93 1016.26 1016.55 1016.69 1016.79 1016.94 1017.07 1017.41 1017.77 1018.14 1018.34 1018.64 1018.98 1019.19 1019.64 1019.68 1019.90 1020.16 1019.84 1019.96 1020.07 1020.15 1020.15 1020.36 1020.01 1019.47 1020.20 1020.12 1020.10 1019.79 1019.57 1019.47 1019.28 1019.15 1018.55
1011.20 1011.91 1012.39 1013.06 1013.72 1014.16 1014.60 1014.97 1015.40 1015.72 1016.07 1016.32 1016.53 1016.68 1016.78 1017.04 1017.36 1017.65 1017.84 1018.03 1018.34 1018.55 1018.99 1019.36 1019.48 1019.79 1019.92 1019.93 1019.87 1020.06 1020.08 1020.23 1020.15 1019.98 1019.96 1019.96 1019.98 1019.87 1019.91 1019.66 1018.90 1018.43 1018.18
1010.42 1011.08 1011.61 1012.12 1012.82 1013.21 1013.74 1014.35 1014.84 1015.18 1015.46 1015.76 1016.05 1016.30 1016.37 1016.61 1016.82 1017.08 1017.27 1017.45 1017.74 1017.96 1018.33 1018.77 1018.96 1019.16 1019.27 1019.28 1019.69 1019.96 1020.09 1020.45 1020.46 1020.10 1019.63 1019.82 1019.96 1020.04 1019.84 1019.56 1019.25 1018.74 1018.32
1009.54 1010.16 1010.71 1011.22 1011.76 1012.29 1012.88 1013.59 1014.12 1014.53 1014.80 1015.11 1015.34 1015.64 1015.82 1016.12 1016.32 1016.44 1016.71 1016.96 1017.25 1017.44 1017.70 1018.02 1018.22 1018.57 1018.75 1019.07 1019.33 1019.50 1019.63 1019.60 1019.94 1019.74 1019.38 1019.13 1018.97 1018.98 1019.35 1018.95 1018.42 1018.23 1017.65
1008.70 1009.20 1009.63 1010.24 1010.94 1011.61 1012.20 1012.72 1013.29 1013.76 1013.98 1014.28 1014.67 1015.00 1015.27 1015.50 1015.59 1015.77 1016.04 1016.26 1016.52 1016.66 1016.94 1017.32 1017.52 1017.82 1018.02 1018.04 1018.25 1018.55 1018.99 1019.40 1018.98 1018.93 1018.84 1018.90 1018.80 1018.52 1018.24 1018.50 1018.46 1017.80 1017.44
1007.84 1008.38 1008.96 1009.54 1010.16 1010.78 1011.40 1011.94 1012.46 1012.88 1013.27 1013.60 1013.82 1014.16 1014.51 1014.68 1014.67 1015.07 1015.32 1015.44 1015.61 1015.68 1015.91 1016.36 1016.71 1017.07 1017.07 1017.45 1017.77 1018.12 1018.73 1019.09 1019.56 1019.20 1018.95 1018.78 1019.04 1019.21 1018.89 1018.42 1017.84 1017.54 1017.12
1006.73 1007.46 1008.19 1008.78 1009.32 1009.84 1010.47 1011.11 1011.48 1011.96 1012.41 1012.70 1013.06 1013.33 1013.49 1013.92 1014.12 1014.48 1014.81 1014.86 1014.69 1014.70 1014.99 1015.12 1015.56 1015.83 1016.45 1017.07 1017.60 1018.05 1018.50 1018.78 1018.82 1018.94 1018.98 1018.56 1018.27 1018.28 1018.69 1018.54 1018.25 1017.83 1017.13
1005.73 1006.44 1007.19 1007.86 1008.40 1009.04 1009.65 1010.14 1010.50 1010.97 1011.38 1011.70 1012.01 1012.35 1012.68 1012.94 1013.36 1013.80 1014.14 1014.32 1014.03 1013.97 1014.01 1014.19 1014.60 1015.02 1015.47 1015.86 1016.32 1017.03 1017.00 1016.80 1017.42 1017.04 1017.20 1017.52 1017.35 1017.49 1018.00 1018.15 1018.11 1017.87 1017.06
1004.72 1005.41 1006.13 1006.84 1007.50 1008.11 1008.60 1009.02 1009.52 1009.98 1010.29 1010.66 1010.97 1011.41 1011.82 1012.10 1012.53 1012.95 1013.50 1013.56 1013.27 1013.12 1013.11 1013.08 1013.04 1013.50 1014.07 1014.71 1015.20 1015.10 1015.62 1016.48 1016.78 1016.13 1016.00 1016.69 1017.32 1017.81 1017.88 1017.60 1017.22 1016.79 1016.09
1003.66 1004.44 1005.25 1005.92 1006.62 1007.19 1007.64 1008.07 1008.46 1009.01 1009.18 1009.56 1009.98 1010.38 1010.84 1011.19 1011.66 1012.16 1012.56 1012.44 1012.12 1011.92 1011.57 1011.46 1012.17 1012.46 1012.90 1013.70 1013.90 1014.06 1014.68 1015.58 1016.57 1016.58 1017.10 1016.91 1016.86 1016.39 1016.92 1017.00 1016.64 1016.30 1015.84
1003.10 1003.88 1004.66 1005.19 1005.67 1006.26 1006.84 1007.30 1007.72 1008.13 1008.39 1008.72 1009.06 1009.46 1009.93 1010.34 1010.72 1011.22 1011.55 1011.46 1010.76 1010.54 1010.28 1010.44 1011.30 1011.45 1012.04 1012.68 1013.52 1014.50 1015.00 1015.44 1016.15 1016.66 1017.07 1016.98 1016.58 1016.70 1016.60 1016.59 1016.28 1016.06 1015.66
1002.48 1003.35 1004.10 1004.58 1004.97 1005.53 1006.18 1006.66 1007.17 1007.56 1007.75 1007.87 1008.17 1008.38 1008.40 1009.05 1009.70 1010.18 1010.15 1010.12 1009.69 1009.67 1009.26 1009.62 1009.88 1010.88 1011.44 1011.99 1013.27 1013.87 1014.90 1015.55 1016.03 1016.36 1016.11 1015.80 1015.72 1015.70 1015.86 1016.02 1016.34 1016.12 1015.83
1001.96 1002.51 1003.19 1003.91 1004.32 1004.91 1005.42 1005.92 1006.43 1006.89 1006.90 1006.92 1006.92 1007.00 1006.97 1007.25 1008.18 1009.07 1009.06 1008.92 1009.42 1009.68 1009.12 1009.13 1009.67 1010.16 1011.17 1012.70 1013.50 1013.93 1014.66 1015.18 1015.24 1015.56 1015.34 1015.53 1015.33 1015.38 1015.94 1016.14 1016.14 1016.31 1015.98
1001.56 1002.14 1002.71 1003.19 1003.54 1004.16 1004.47 1004.82 1005.20 1005.41 1005.72 1005.86 1005.90 1005.88 1006.01 1006.27 1006.75 1007.76 1008.23 1008.41 1009.01 1009.39 1009.32 1009.55 1009.94 1010.75 1011.56 1012.52 1013.26 1014.10 1014.18 1014.38 1014.70 1014.76 1014.89 1015.18 1015.45 1015.66 1015.74 1015.38 1015.32 1015.42 1015.24
1001.32 1001.67 1002.19 1002.60 1002.93 1003.28 1003.71 1003.52 1003.65 1003.80 1004.09 1004.40 1004.58 1004.80 1004.96 1004.93 1005.22 1006.39 1006.70 1006.76 1007.12 1007.75 1008.42 1009.54 1010.14 1010.81 1011.58 1012.05 1012.38 1012.90 1013.27 1013.68 1014.12 1014.55 1014.58 1014.46 1014.50 1014.99 1015.25 1015.27 1015.24 1015.28 1014.82
1000.80 1000.87 1001.20 1001.38 1001.54 1002.06 1002.45 1002.91 1003.21 1003.49 1003.82 1003.96 1004.11 1004.27 1003.94 1004.29 1004.92 1005.49 1006.05 1006.42 1006.80 1007.40 1008.25 1008.70 1009.39 1010.07 1010.41 1010.72 1011.02 1011.68 1012.38 1012.64 1013.24 1013.73 1014.07 1013.93 1014.43 1014.34 1014.38 1014.66 1014.79 1014.60 1014.51
1000.73 1000.54 1000.63 1001.06 1000.93 1001.11 1001.46 1001.68 1002.02 1003.00 1003.42 1003.64 1003.79 1004.08 1004.30 1004.32 1004.88 1005.15 1005.54 1006.20 1007.02 1007.58 1007.64 1007.72 1008.24 1008.81 1009.17 1009.60 1010.03 1010.39 1011.06 1011.78 1012.34 1012.94 1013.22 1013.21 1013.63 1014.16 1014.34 1014.44 1014.21 1013.94 1014.00
1000.81 1000.85 1000.64 1000.53 1000.47 1000.47 1000.73 1000.87 1001.07 1001.45 1002.02 1002.26 1002.94 1003.35 1003.77 1004.31 1004.80 1005.32 1005.91 1006.59 1007.40 1007.37 1007.06 1007.06 1007.36 1007.70 1008.28 1008.68 1009.18 1009.64 1010.60 1011.38 1011.72 1012.32 1012.36 1012.44 1012.72 1013.69 1013.94 1013.67 1013.90 1013.70 1013.74
1001.84 1001.20 1000.56 1000.28 1000.13 1000.20 1000.26 1000.43 1000.60 1000.60 1000.69 1001.08 1001.69 1003.15 1003.72 1004.18 1004.44 1004.97 1005.36 1005.31 1005.40 1005.90 1006.08 1006.14 1006.25 1006.72 1007.34 1007.85 1008.42 1008.92 1009.64 1010.44 1010.82 1011.40 1011.30 1011.74 1012.14 1013.12 1013.11 1013.26 1013.33 1013.93 1014.02
1002.81 1002.40 1001.66 1000.99 1000.68 1000.48 1000.46 1000.13 1000.13 1000.06 1000.13 1000.10 1000.46 1001.12 1002.59 1003.72 1003.93 1004.58 1005.06 1004.88 1004.60 1004.59 1004.87 1005.08 1005.53 1006.03 1006.50 1007.13 1007.82 1008.42 1009.24 1009.80 1010.14 1010.48 1010.60 1010.85 1011.20 1012.29 1012.52 1012.27 1012.63 1013.05 1013.43
1004.14 1003.48 1003.13 1002.37 1001.41 1001.27 1000.74 1000.09 1000.00 999.72 999.40 999.56 999.86 1000.35 1001.04 1001.98 1002.12 1002.69 1003.40 1003.71 1003.78 1003.86 1004.08 1004.45 1004.76 1005.46 1005.99 1006.77 1007.36 1007.93 1008.27 1008.97 1009.28 1009.45 1010.14 1010.53 1011.62 1012.04 1012.26 1012.23 1012.33 1012.69 1013.13
1005.41 1004.78 1004.24 1004.08 1002.49 1001.88 1002.23 1001.36 1000.71 1000.16 999.47 999.36 999.25 999.81 1000.80 1001.49 1001.45 1001.58 1001.92 1002.46 1002.76 1003.12 1003.42 1004.00 1004.57 1005.18 1005.62 1006.13 1006.78 1007.24 1007.62 1007.84 1008.05 1008.92 1009.56 1010.12 1010.58 1011.13 1012.10 1012.13 1012.20 1012.64 1012.87
1006.89 1006.49 1005.70 1005.73 1004.54 1002.40 1002.72 1003.63 1002.78 1001.74 1000.83 1000.01 999.88 1000.04 1000.60 1001.01 1001.21 1001.31 1001.23 1001.59 1002.47 1002.94 1003.33 1003.74 1004.36 1004.90 1005.20 1005.58 1006.05 1006.22 1006.26 1006.44 1006.97 1008.34 1009.25 1009.97 1010.81 1010.94 1011.31 1011.78 1011.86 1012.35 1012.60
1007.61 1007.38 1007.13 1006.40 1004.49 1003.17 1004.27 1005.23 1004.55 1003.35 1002.36 1000.86 1000.10 1000.63 1000.35 1000.56 1000.75 1000.79 1001.02 1001.57 1002.41 1002.75 1002.98 1003.52 1003.96 1004.22 1004.56 1004.97 1005.32 1005.49 1005.52 1005.68 1006.76 1007.92 1008.78 1009.51 1010.38 1011.17 1011.04 1011.41 1011.64 1012.24 1012.51
1008.58 1009.28 1009.14 1008.32 1007.51 1006.99 1006.64 1006.15 1005.36 1004.44 1003.33 1002.45 1002.28 1002.09 1001.71 1001.49 1001.38 1001.34 1001.46 1001.76 1002.21 1002.63 1002.84 1003.27 1003.42 1003.67 1003.94 1004.32 1004.67 1005.13 1005.32 1006.10 1006.67 1007.73 1008.64 1009.17 1009.84 1010.71 1010.77 1011.20 1011.60 1012.12 1012.55
1009.16 1010.15 1010.31 1009.57 1009.06 1008.05 1007.29 1006.48 1005.73 1004.98 1004.43 1004.14 1003.47 1002.99 1002.88 1002.46 1001.99 1001.42 1001.74 1001.82 1002.27 1002.53 1002.66 1002.91 1003.05 1003.28 1003.62 1004.09 1004.48 1004.84 1005.48 1006.25 1006.96 1007.31 1007.95 1008.61 1009.75 1010.23 1010.82 1010.96 1011.64 1012.06 1012.57
Wind_Speed
17 16 14 14 14 13 12 12 11 9 9 8 7 7 7 7 7 7 7 6 7 6 5 6 5 4 4 3 3 3 4 4 6 4 4 3 5 5 5 5 6 6 6
17 15 17 16 15 14 13 13 12 11 10 10 9 9 9 8 8 10 10 8 9 8 7 7 7 5 6 5 5 5 4 4 5 6 4 3 5 4 6 7 5 5 6
17 18 17 17 16 16 15 14 13 13 12 12 11 11 11 10 10 11 11 10 9 9 9 10 9 9 8 6 6 4 4 4 4 5 6 3 3 5 5 6 6 6 6
19 19 18 18 18 17 15 14 14 14 14 13 13 13 12 11 11 12 12 11 11 10 10 11 11 10 9 8 8 8 6 5 5 6 6 6 5 2 4 5 6 5 8
19 19 19 17 16 15 14 14 14 14 14 14 14 13 13 12 10 13 13 13 12 12 11 11 12 12 12 12 8 9 7 7 5 6 6 6 6 5 4 2 6 7 7
19 19 17 17 16 15 15 14 14 14 14 13 14 14 14 11 12 14 14 13 14 14 12 13 12 13 16 15 16 9 9 7 7 6 6 6 7 7 5 5 5 6 6
19 19 18 17 17 16 15 15 15 15 13 14 14 14 15 15 12 15 17 14 14 14 14 13 13 11 14 12 15 12 11 12 8 6 8 8 6 6 5 7 6 6 7
20 20 19 18 18 16 15 15 15 13 14 13 14 14 14 12 12 15 17 16 15 16 17 16 15 14 13 15 13 12 14 14 13 11 11 11 9 7 7 7 7 8 8
20 20 19 18 18 17 17 16 15 13 13 14 13 14 15 14 14 16 14 14 14 16 16 17 18 16 17 19 14 14 11 11 10 12 15 7 8 8 9 6 7 6 8
20 19 18 18 17 17 17 16 14 14 13 12 13 13 14 15 13 17 17 11 13 13 16 17 16 18 17 21 17 13 12 11 9 6 7 8 10 9 11 10 7 7 8
17 16 16 17 17 17 16 14 13 13 12 13 13 12 14 13 13 17 19 14 13 13 14 11 12 22 17 22 20 11 7 6 5 6 4 5 5 5 5 6 6 6 8
15 15 15 15 14 13 14 12 13 12 13 13 13 12 11 12 14 16 22 25 15 15 12 11 12 15 20 19 14 12 11 7 4 4 5 5 4 4 4 4 6 7 7
14 15 16 15 14 13 13 13 12 12 12 12 12 12 11 10 11 18 19 23 22 14 13 11 8 14 10 7 8 15 12 6 6 6 7 5 4 2 3 3 5 5 7
15 14 14 14 14 14 13 12 12 12 12 12 12 11 10 10 10 9 13 11 12 11 15 6 9 11 10 9 10 10 6 6 6 5 4 2 2 3 4 4 4 3 5
13 13 14 13 13 13 13 12 13 13 13 12 13 12 11 12 11 13 13 10 9 10 8 7 6 6 6 8 8 9 8 7 7 5 6 6 5 4 5 4 4 5 5
12 12 12 12 12 12 12 11 12 11 10 13 11 11 10 14 3 18 18 15 7 12 6 6 7 7 9 9 11 12 8 11 8 7 7 6 4 5 5 4 5 4 5
11 10 9 10 11 10 11 11 11 8 10 11 13 15 13 15 7 16 19 10 10 10 7 7 7 9 9 9 9 10 10 8 8 7 7 7 6 5 4 5 5 4 5
7 6 8 8 10 9 10 10 9 9 9 8 13 15 11 11 12 8 10 12 3 6 8 7 9 9 8 9 9 11 7 8 9 8 8 9 7 5 5 6 5 4 4
9 6 6 7 7 8 8 8 9 9 8 7 5 4 6 7 1 10 19 11 10 8 9 9 8 8 8 7 7 7 9 9 9 9 9 9 8 7 7 5 4 3 3
10 10 6 3 4 6 7 8 8 8 7 6 6 6 7 4 4 4 6 7 7 8 9 9 8 7 7 7 7 7 7 9 9 9 10 10 9 7 7 7 5 4 3
8 9 12 8 7 6 4 4 5 5 5 5 4 5 7 6 5 6 7 8 9 8 8 8 8 6 7 7 7 8 9 9 9 11 10 9 8 8 6 5 5 4 1
12 9 10 8 5 8 10 9 6 7 6 5 4 4 10 6 6 6 7 7 8 7 6 5 5 6 8 8 8 9 10 10 12 11 10 11 10 8 7 6 6 4 2
11 12 10 9 9 8 11 10 10 10 7 5 4 5 2 4 5 6 6 4 4 5 6 6 7 7 7 7 9 11 12 13 12 11 11 9 7 8 8 7 7 5 2
12 14 13 11 12 14 12 9 10 11 11 9 7 6 5 5 5 5 3 3 5 5 6 7 8 9 8 8 8 11 10 11 10 13 14 11 10 9 8 8 7 6 4
12 11 11 11 10 8 7 8 9 11 11 11 9 8 7 5 4 3 2 3 4 4 6 7 7 10 13 16 12 12 9 14 15 15 10 12 12 13 9 8 8 6 5
13 12 10 10 10 10 10 10 10 11 11 10 11 9 8 6 5 3 2 2 3 5 6 7 9 13 13 11 11 12 14 15 16 15 12 12 11 10 9 10 10 7 6
Wind_Direction
202 199 205 210 211 210 209 209 209 207 206 209 205 203 207 212 209 210 213 198 206 210 203 214 211 194 223 230 236 241 250 253 272 293 284 308 293 286 288 286 269 287 298
201 201 202 205 212 215 213 210 209 209 205 210 209 214 218 220 218 221 221 213 215 218 213 216 221 206 217 226 231 237 250 226 271 287 316 290 266 294 290 288 273 287 287
197 202 208 207 209 218 218 215 212 212 210 212 213 216 222 222 224 225 228 225 223 226 219 216 221 213 218 224 232 245 227 233 232 267 284 281 302 310 309 283 281 298 282
198 203 206 208 209 216 213 214 213 214 214 216 220 220 225 226 230 229 225 227 228 229 224 220 219 217 223 216 222 225 218 221 221 245 263 269 256 250 272 288 295 296 309
200 203 207 206 208 213 212 212 213 217 219 219 224 226 230 229 229 225 224 226 227 231 226 223 222 221 217 217 217 213 194 226 226 240 257 266 272 270 264 336 292 306 301
200 207 207 207 207 208 209 212 210 215 219 220 224 228 229 232 219 208 225 229 230 233 231 225 224 209 219 210 214 217 198 182 245 267 279 281 291 286 291 288 286 298 313
200 201 205 205 208 208 207 209 214 214 212 220 225 226 231 233 209 203 212 235 239 237 235 230 219 215 216 217 217 209 206 215 233 244 263 264 268 258 286 283 277 283 283
200 201 203 204 207 207 207 209 214 212 214 218 224 228 233 233 200 205 212 231 241 241 240 233 226 218 200 211 211 206 211 203 205 218 210 247 240 244 246 266 284 285 272
201 202 202 203 208 207 209 209 212 212 214 219 225 227 230 238 198 205 206 232 240 240 240 234 222 218 204 193 203 213 207 219 219 210 232 230 249 250 249 259 256 268 296
200 202 201 202 208 211 211 211 211 213 219 220 225 226 228 238 197 205 205 232 237 237 237 233 213 223 195 186 208 203 189 215 217 206 226 231 233 222 204 223 269 282 297
200 201 202 202 203 210 213 213 211 212 222 218 226 227 232 229 230 201 206 225 235 237 245 236 231 209 190 190 198 190 203 172 219 231 227 241 234 236 240 222 232 264 277
193 197 203 203 207 208 211 211 216 215 218 222 223 231 228 230 220 201 214 215 228 240 248 243 243 183 201 192 176 150 144 122 188 211 230 239 247 241 236 226 254 259 269
188 195 200 203 204 210 205 209 210 216 228 227 227 231 233 221 223 215 220 223 227 245 249 263 237 195 178 122 131 143 154 185 193 194 230 218 229 251 295 244 252 257 267
195 200 202 203 201 206 208 210 216 219 222 229 231 234 237 233 227 209 226 230 227 229 249 264 87 120 151 146 141 166 191 178 189 204 227 202 224 246 250 243 276 283 293
203 205 210 213 204 210 220 216 213 217 214 215 223 228 231 234 225 212 223 233 228 218 216 145 140 149 150 179 180 182 178 173 183 185 206 213 202 211 242 222 254 281 275
210 207 212 214 207 209 215 224 229 247 226 235 258 245 242 243 189 189 218 231 224 141 196 195 191 181 187 189 196 190 186 178 173 183 201 212 191 208 221 228 251 260 284
241 231 222 222 219 214 216 220 227 204 221 230 237 243 242 258 205 199 212 204 147 153 226 206 188 191 199 196 194 193 187 179 169 185 202 197 193 197 183 242 249 260 268
226 262 245 226 227 220 221 224 226 226 233 229 214 230 228 240 243 221 140 119 143 224 215 207 201 204 200 196 192 200 171 161 179 187 189 197 187 185 202 222 242 271 272
22 358 252 244 238 232 227 229 235 226 222 234 214 195 108 64 177 167 168 220 216 206 209 212 204 201 199 200 192 177 165 170 175 186 191 186 166 181 210 219 215 282 283
359 341 328 321 268 226 226 231 227 223 225 214 204 240 134 152 204 179 208 227 221 223 211 210 200 198 191 176 163 164 163 173 171 188 190 179 166 174 205 195 185 214 248
353 355 341 13 18 2 318 246 248 243 223 220 225 235 175 208 238 215 201 213 225 231 224 216 203 180 164 156 161 167 170 173 183 189 189 165 155 195 204 178 172 182 230
4 2 8 351 30 31 358 338 325 293 274 254 232 140 148 208 250 243 219 216 222 223 217 189 162 162 167 172 176 172 175 178 189 184 178 160 170 184 186 178 170 177 162
4 357 12 360 1 61 34 351 344 338 310 296 319 294 181 228 238 244 254 244 207 190 169 157 167 177 180 190 191 183 182 190 181 178 165 154 165 181 176 177 168 173 149
22 10 6 360 11 25 26 360 351 355 348 345 352 330 329 315 291 271 254 216 194 180 172 182 190 186 182 175 188 200 198 180 165 169 153 160 175 177 171 172 165 147 145
34 19 9 5 13 18 19 15 10 8 6 10 7 1 353 344 316 286 215 211 197 201 205 203 193 188 184 190 193 196 145 129 162 147 157 167 170 180 169 166 157 151 139
34 14 2 8 7 8 14 16 15 14 11 2 360 360 349 340 330 350 292 179 202 213 209 211 212 197 190 190 188 161 142 142 149 146 159 160 168 172 169 158 159 151 146